Trat Airport
VTBO : now visible

Airfield :











YOU CAN JOIN US ON...

 
LOGIN :

Register | Disclaimer

   EN    FR    IT 

 









Legend :    VFR   Marginal VFR   IFR   Intensive IFR   Very Intensive IFR
Visi :
Ceiling :
>= 8 km
>= 3000ft
5 to 8 km
1000 to 3000 ft
1500m to 5 km
500 to 1000 ft
800 to 1500m
200 to 500 ft
< 800m
< 200 ft
Symbols :   Thunderstorms  Fog  Heavy snow  Heavy precipitations  Wind > 20 kt






- Airport Elevation : 105 ft


VTBO - Trat

CURRENT METAR :
  • 250000Z 18007KT 6000 VCSH FEW016CB SCT020 BKN100 26/25 Q1007

EXPIRED METARs :
  • 242300Z 19003KT 6000 VCSH FEW016CB SCT020 BKN100 26/25 Q1006 RERA

TAF TAF VTBO
Valid from the 25 at 00:00 until the 26 at 00:00 UTC


242300Z 2500/2524 22008KT 8000 SCT020 BKN100
TEMPO 2500/2506 VRB15KT 3000 TSRA FEW018CB SCT030 BKN100
TEMPO 2520/2524 VRB15KT 3000 TSRA FEW018CB SCT030 BKN100
VTBB FIR / Asia



MET'MAP, your aeronautical weather chart ! - Copyright ORBIFLY December 2007 - Disclaimer

ORBIFLY MET'MAP TEAM :

Programming & Development : Alexandra Zaïnal
Original concept : Baudouin d'Aumeries
Technical & hardware support : Manuel Goepfert
Assistance : Marc-Olivier Méhu




SOURCES & CREDITS :

   NOAA       Earth
Advisory